Location: Kott?ru
(16.6209°N, 80.6208°E)
Time: 15:07:41
(UTC+00:00)

N. Korean satellite - Visible Passes

Search period start: 30 January 2023 00:00
Search period end: 09 February 2023 00:00
Orbit: 407 x 444 km, 97.3° (Epoch: 29 January)

Date Brightness Start Highest point End Pass type
(mag) Time Alt. Az. Time Alt. Az. Time Alt. Az.
30 Jan 8.3 00:40:18 10° WNW 00:41:04 11° WNW 00:41:50 10° W visible
30 Jan 6.3 23:55:41 10° N 23:58:52 57° WNW 00:02:06 10° SSW visible
31 Jan 8.8 23:13:55 10° NE 23:16:31 22° E 23:19:07 10° SSE visible
02 Feb 6.6 00:03:04 10° N 00:06:09 41° WNW 00:09:16 10° SSW visible
02 Feb 8.3 23:20:48 10° NE 23:23:41 29° E 23:26:35 10° SSE visible
04 Feb 7.0 00:10:15 10° NNW 00:13:11 31° WNW 00:16:08 10° SW visible
04 Feb 7.8 23:27:31 10° NNE 23:30:36 38° E 23:33:41 10° S visible
06 Feb 7.4 00:17:15 10° NNW 00:19:57 24° WNW 00:22:40 10° SW visible
06 Feb 7.1 23:34:04 10° NNE 23:37:15 51° E 23:40:29 10° S visible
08 Feb 7.7 00:24:03 10° NNW 00:26:27 19° WNW 00:28:53 10° SW visible
08 Feb 6.6 23:40:24 10° NNE 23:43:40 68° ESE 23:46:57 10° S visible
